Regional Weather Roundup
Issued by NWS Wilmington, NC

Home | Current Version | Previous Version | Text Only | Print | Product List | Glossary On
Versions: 1 2 3 4 5 6 7 8 9 10 11 12 13 14 15 16 17 18 19 20 21 22 23 24 25 26 27 28 29 30 31 32 33 34 35 36 37 38 39 40 41 42 43 44 45 46 47 48 49 50
000
ASUS42 KILM 020813
RWRILM
RWRILM
REGIONAL HOURLY WEATHER ROUNDUP
NATIONAL WEATHER SERVICE WILMINGTON NC
400 AM EDT THU JUL 02 2015

NOTE: "FAIR" INDICATES FEW OR NO CLOUDS BELOW 12,000 FEET WITH NO
SIGNIFICANT WEATHER AND/OR OBSTRUCTIONS TO VISIBILITY.

...............WFO WILMINGTON COUNTY WARNING AREA...............

......COASTAL NC AND SC COUNTIES......

CITY           SKY/WX    TMP DP  RH WIND       PRES   REMARKS
WILMINGTON     CLEAR     78  72  81 SW8       29.94F
N MYRTLE BEACH MOCLDY    79  71  76 SW8       29.95F
MYRTLE BEACH   PTCLDY    79  70  73 SW7       29.97F

......INLAND NC AND SC COUNTIES.......

CITY           SKY/WX    TMP DP  RH WIND       PRES   REMARKS
LUMBERTON      CLOUDY    76  71  85 S6        29.92F
ELIZABETHTOWN  NOT AVBL
WHITEVILLE     NOT AVBL
FLORENCE       CLOUDY    76  71  85 SW6       29.94F
DARLINGTON     CLOUDY    75  66  73 SW10      29.94S

....................REST OF NORTH CAROLINA......................

.........EASTERN NC.........

CITY           SKY/WX    TMP DP  RH WIND       PRES   REMARKS
CAPE HATTERAS  CLEAR     78  75  90 SW7       29.95S
JACKSONVILLE   PTCLDY    72  66  83 SW3       29.93F
MOREHEAD CITY  PTCLDY    79  76  90 SW9G20    29.95S
KENANSVILLE    NOT AVBL
NEW BERN       PTCLDY    74  71  91 SW6       29.94F
ELIZABETH CITY CLOUDY    76  72  87 S7        29.90F

.........CENTRAL NC.........

CITY           SKY/WX    TMP DP  RH WIND       PRES   REMARKS
RALEIGH DURHAM CLOUDY    76  70  82 SW7       29.91F
ROCKY MOUNT    CLOUDY    76  71  85 S7        29.90F
ROANOKE RAPIDS NOT AVBL
FAYETTEVILLE   CLOUDY    77  71  82 SW9       29.91F
HOFFMAN        CLOUDY    76  70  84 S3        29.95S

.........WESTERN NC.........

CITY           SKY/WX    TMP DP  RH WIND       PRES   REMARKS
CHARLOTTE      CLOUDY    72  64  76 W6        29.96S
GREENSBORO     CLOUDY    72  68  87 SW3       29.92F FOG
HICKORY        NOT AVBL
BOONE          NOT AVBL
ASHEVILLE      NOT AVBL

.....................REST OF SOUTH CAROLINA.....................

.........EASTERN SC.........

CITY           SKY/WX    TMP DP  RH WIND       PRES   REMARKS
CHARLESTON     PTCLDY    76  70  82 SW8       29.97F
BEAUFORT MCAS  MOCLDY    72  69  90 SW5       30.00F
HILTON HEAD    PTCLDY    77  70  78 SW5       30.02F

.........CENTRAL SC.........

CITY           SKY/WX    TMP DP  RH WIND       PRES   REMARKS
COLUMBIA       CLOUDY    75  66  73 W7        29.96F
ORANGEBURG     CLOUDY    74  69  85 SW7       29.99S
SUMTER SHAW    CLOUDY    75  69  82 SW8       29.94F

.........WESTERN SC.........

CITY           SKY/WX    TMP DP  RH WIND       PRES   REMARKS
GREENVILLE     NOT AVBL
ROCK HILL      CLOUDY    71  64  78 SW7       29.96F
ANDERSON       CLOUDY    71  68  90 SW6       29.99F
CLEMSON        NOT AVBL
GREENWOOD      CLOUDY    69  68  96 SW6       30.00F FOG


...................COASTAL AND OFFSHORE REPORTS..................

................LOCAL PIERS AND NC RESERVE................


STATION/POSITION TIME  SKY/WX   TEMP    WIND        PRES    VSBY
                                AIR SEA DIR/SP/G
                 (UTC)          (F)     (DEG/KT/KT) (MB)    (MI)
JOHNY MRCER PIER 0700            79 81  230/  8/ 11 1013.9F
NC RESRV MASNBRO NOT AVBL
OCEAN CREST PIER NOT AVBL
SPRINGMAID  PIER 0700            79 83  210/  9/ 11 1014.7F


................COASTAL AND OFFSHORE BUOYS................


STATION/POSITION TIME  SKY/WX   TEMP    WIND        PRES    VSBY
                                AIR SEA DIR/SP/G
                 (UTC)          (F)     (DEG/KT/KT) (MB)    (MI)
DIMNDSHOAL 41025 0750            80 82  230/ 14/ 16 1013.8F
WVE H/P(F/S)=  5/ 6 WND WVE H/P(F/S)=  3/ 6 SWL H/P/D(F/S/D)=  3/320/12

CAPE LOOKOUT     0800            79     230/ 10/ 13 1013.8F
ONSLOW BAY 41036 NOT AVBL
5 WRITEBCH 41038 0708            81 80  230/ 14/ 17 1014.2F
MASONBORO  41110 0719               80                N/A
WVE H/P(F/S)=  3/ 8 WND WVE H/P(F/S)=  3/ 8

WILM HARBR 41108 0711               81                N/A
WVE H/P(F/S)=  4/ 7 WND WVE H/P(F/S)=  5/ 7

27WRITEBCH 41037 0700               80  240/ 12/ 16   N/A
FRYING PAN 41013 0750            81 80  220/ 16/ 17 1015.0F
WVE H/P(F/S)=  4/ 6 WND WVE H/P(F/S)=  3/ 6 SWL H/P/D(F/S/D)=  2/110/ 8

SUNST NRSH 41024 0708            82     250/ 14/ 19 1014.1
CAPRS NRSH 41029 0708            81     260/ 14/ 17 1015.6F
EDISTO     41004 0750            81 82  240/ 14/ 16 1015.0F
WVE H/P(F/S)=  4/ 6 WND WVE H/P(F/S)=  3/ 6 SWL H/P/D(F/S/D)=  2/ 7



..........OFFSHORE BUOYS BEYOND 100 NM OFFSHORE...........
.....IN A TRIANGLE---HAT TO BERMUDA TO BAHAMAS TO HAT.....


STATION/POSITION TIME  SKY/WX   TEMP    WIND        PRES    VSBY
                                AIR SEA DIR/SP/G
                 (UTC)          (F)     (DEG/KT/KT) (MB)    (MI)
150E HAT   41001 NOT AVBL
W BERMUDA  41048 0750            81 80  200/ 14/ 17 1020.5F
WVE H/P(F/S)=  5/ 7 WND WVE H/P(F/S)=  3/ 7 SWL H/P/D(F/S/D)=  3/140/ 9

ATLANTIC S 41049 0750            81 83  100/  6/  6 1022.7F
WVE H/P(F/S)=  4/ 8 WND WVE H/P(F/S)=  2/ 4 SWL H/P/D(F/S/D)=  3/130/ 8

E BAHAMAS  41046 0750            81 83   90/ 12/ 16 1020.0F
WVE H/P(F/S)=  6/ 9 WND WVE H/P(F/S)=  3/ 6 SWL H/P/D(F/S/D)=  5/110/ 9

NE BAHAMAS 41047 0750            82 83  160/  8/ 10 1020.9F
WVE H/P(F/S)=  5/ 9 WND WVE H/P(F/S)=  2/ 4 SWL H/P/D(F/S/D)=  5/120/ 9

120E CANVRL41010 0720            83 84  200/ 10/ 12 1019.4F

END


USA.gov is the U.S. government's official web portal to all federal, state and local government web resources and services.